Location: Unspecified
(0.0000°N, 0.0000°E)
Time: 21:10:28
(UTC+00:00)

Vanguard 1 - Pass Details

Date: 16 June 2025
Orbit: 649 x 3822 km, 34.2° (Epoch: 12 July)

Event Time Altitude Azimuth Distance (km) Brightness Sun altitude
Exits shadow 04:37:05 10° 186° (S) 2,497 11.9 -19.1°
Reaches altitude 10° 04:37:11 10° 185° (S) 2,476 11.8 -19.1°
Maximum altitude 04:41:29 21° 136° (SE) 2,218 12.1 -18.1°
Drops below altitude 10° 04:47:27 10° 91° (E) 3,601 14.0 -16.8°
Sets 04:52:29 0° 77° (ENE) 5,200 15.5 -15.6°
